Regional Weather Roundup
Issued by NWS State College, PA

Current Version | Previous Version | Text Only | Print | Product List | Glossary On
Versions: 1 2 3 4 5 6 7 8 9 10 11 12 13 14 15 16 17 18 19 20 21 22 23 24 25 26 27 28 29 30 31 32 33 34 35 36 37 38 39 40 41 42 43 44 45 46 47 48 49 50
000
ASUS41 KCTP 201410
RWRCTP

REGIONAL WEATHER ROUNDUP
NATIONAL WEATHER SERVICE STATE COLLEGE PA
1000 AM EDT SAT APR 20 2019

Note: "fair" indicates few or no clouds below 12,000 feet with no
significant weather and/or obstructions to visibility.

* = STATION THAT DOES NOT REPORT PRECIPITATION /E.G. RAIN...SNOW...ETC/
    THUNDER OR FOG.

PAZ002>004-007>009-013>016-020>023-029>032-201500-
WESTERN PENNSYLVANIA

CITY           SKY/WX    TMP DP  RH WIND       PRES   REMARKS
ERIE           CLOUDY    41  39  93 NE24G36   29.54S
MEADVILLE      CLOUDY    50  48  93 N9        29.47S
FRANKLIN*      PTSUNNY   63  58  83 SE20G26   29.48S
NEW CASTLE     CLOUDY    48  47  96 SW3       29.51R
BEAVER COUNTY  CLOUDY    52  50  93 CALM      29.51R
BUTLER*        FAIR      61  52  72 SW12G20   29.51R
PITTSBURGH INT PTSUNNY   58  51  78 SW10G22   29.51R
PITTSBURGH     FAIR      62  51  67 SW14G21   29.50R
INDIANA*       MOSUNNY   66  55  68 S15G23    29.53S
LATROBE        MOSUNNY   66  50  55 SW21      29.50R
WASHINGTON CO* PTSUNNY   59  51  75 SW12G17   29.53
$$

PAZ004>006-010>012-017>019-024>028-033>037-041-042-045-046-049>053-201500-
CENTRAL PENNSYLVANIA

CITY           SKY/WX    TMP DP  RH WIND       PRES   REMARKS
BRADFORD       CLOUDY    49  48  97 E7        29.56S
DUBOIS         PTSUNNY   64  56  75 SE13G18   29.50F
CLEARFIELD     CLOUDY    65  58  78 VRB7      29.53F
JOHNSTOWN      FAIR      62  49  62 S17G28    29.52R
ALTOONA        CLOUDY    64  56  75 S15G28    29.52S
STATE COLLEGE  PTSUNNY   66  61  82 E9        29.55F
WILLIAMSPORT   FAIR      70  60  70 E13       29.57S
SELINSGROVE    PTSUNNY   70  62  76 SE10      29.57F
FT INDIANTOWN  CLOUDY    68  63  83 E9          N/A
CAPITAL CITY   CLOUDY    67  62  84 SE9       29.58S
HARRISBURG     CLOUDY    66  62  87 SE8       29.57S
YORK           CLOUDY    67  63  87 SE10      29.57S
$$

PAZ038>040-043-044-047-048-054-055-060>062-067>071-201500-
EASTERN PENNSYLVANIA

CITY           SKY/WX    TMP DP  RH WIND       PRES   REMARKS
SCRANTON       LGT RAIN  66  63  90 SE3       29.63F
MOUNT POCONO   HVY RAIN  60  60 100 SE5       29.68R FOG
ALLENTOWN      HVY RAIN  67  63  87 S12       29.64F FOG
QUAKERTOWN*      N/A     66  66 100 S14G24    29.67R FOG
READING        CLOUDY    66  66 100 SE6       29.62S
LANCASTER      CLOUDY    68  65  90 SE9       29.60F
COATESVILLE    CLOUDY    64  64 100 SE9       29.65S
POTTSTOWN      CLOUDY    66  64  93 S10G20    29.67R
BLUE BELL      CLOUDY    64  64 100 S13G24    29.68R
DOYLESTOWN     LGT RAIN  67  62  84 S10G22    29.67R
WILLOW GROVE   NOT AVBL
NORTH PHILA    CLOUDY    68  63  84 S6G16     29.69R
PHILADELPHIA   LGT RAIN  67  63  87 SE15      29.66F
$$



USA.gov is the U.S. government's official web portal to all federal, state and local government web resources and services.